Flag for Brazil Weather past 2 weeks in Campinas, São Paulo, Brazil

Now
75 °F

Scattered clouds.


Feels Like: 77 °F
Forecast: 68 / 85 °F
Wind: 10 mph from North

Location: Campinas Aeroporto

Current Time: Dec 20, 2014 at 11:20:44 AM

Latest Report: Dec 20, 2014 at 11:00 AM


Visibility: N/A

Pressure: 29.98 "Hg

Humidity: 74%

Dew point: 66 °F

Location of CampinasLocation

Historic Weather in Campinas — Graph

°F

Campinas temperature yesterday

Maximum temperature yesterday: 88 °F (at 3:00 PM)
Minimum temperature yesterday: 70 °F (at 6:00 AM)
Average temperature yesterday: 77 °F

Past Weeks' High & Low Weather Summary

 TemperatureHumidityPressure
High91 °F (Dec 7, 7:00 PM)100% (Dec 14, 4:00 AM)30.12 "Hg (Dec 14, 4:00 AM)
Low61 °F (Dec 15, 6:00 AM)26% (Dec 7, 6:00 PM)29.80 "Hg (Dec 18, 6:00 PM)
Average74 °F69%29.98 "Hg
* Reported Dec 5 10:00 AM — Dec 20 10:00 AM, Campinas, Weather by CustomWeather, © 2014

Note: Actual official high and low records may vary slightly from our data, if they occured in-between our weather recording intervals... More about our weather records

Advertising

Campinas weather history for previous 24 hours

 ConditionsComfort  
Time TempWeatherWind HumidityBarometerVisibility
10:00 AM
Dec 20
70 °FPassing clouds.12 mph94%29.98 "HgN/A
9:00 AM68 °FLight rain. Partly sunny.8 mph100%29.98 "HgN/A
8:00 AM68 °FLight rain. Partly sunny.13 mph94%29.98 "Hg4 mi
7:00 AM68 °FLight rain. Fog.1 mph94%N/A3 mi
6:00 AM68 °FLight rain. Fog.8 mph94%N/A3 mi
5:00 AM68 °FRain. Overcast.No wind94%29.92 "Hg5 mi
4:00 AM68 °FLight rain. Partly cloudy.9 mph94%29.89 "HgN/A
3:00 AM70 °FThunderstorms. Partly cloudy.9 mph88%N/AN/A
2:00 AM72 °FLight rain. Partly cloudy.13 mph78%29.92 "HgN/A
1:00 AM72 °FThunderstorms. Partly cloudy.7 mph78%N/AN/A
12:00 AM73 °FLight rain. Passing clouds.9 mph78%29.92 "HgN/A
11:00 PM
Dec 19
73 °FThunderstorms. Passing clouds.12 mph78%29.92 "HgN/A
10:00 PM73 °FThunderstorms. Passing clouds.16 mph78%29.89 "HgN/A
9:00 PM73 °FThunderstorms. Passing clouds.13 mph78%29.86 "HgN/A
8:00 PM73 °FThunderstorms. Passing clouds.14 mph74%29.83 "HgN/A
7:00 PM79 °FThunderstorms. Scattered clouds.10 mph65%29.83 "HgN/A
6:00 PM86 °FThunderstorms. Scattered clouds.6 mph55%29.80 "HgN/A
4:00 PM86 °FScattered clouds.7 mph52%29.83 "HgN/A
3:00 PM88 °FPartly sunny.10 mph49%29.83 "HgN/A
2:00 PM86 °FPartly sunny.8 mph52%29.86 "HgN/A
1:00 PM84 °FPartly sunny.9 mph55%29.89 "HgN/A
12:00 PM82 °FPartly sunny.8 mph58%29.92 "HgN/A
11:00 AM81 °FPartly sunny.10 mph62%29.92 "HgN/A
Weather by CustomWeather, © 2014

See weather overviewHow to use our weather pages